EW2070 Weather Reports


time (UTC)temp
F
wind
direction
speed
knots
gust
knots
rain 1hr
in
rain 24hr
in
rain mn
in
humidity
%
barometer
mb
20260510170037 81 65 0.9 5.2 0.00 0.28 0.00 86 1017.3
20260510164520 84 66 1.7 3.5 0.00 0.28 0.00 82 1017.6
20260510163017 87 349 0.0 0.9 0.00 0.28 0.00 73 1017.7
20260510161558 86 338 0.0 1.7 0.00 0.28 0.00 74 1017.6
20260510160055 85 289 0.0 1.7 0.00 0.28 0.00 78 1017.7
20260510154548 85 270 0.0 1.7 0.00 0.28 0.00 80 1017.8
20260510153034 84 331 0.0 0.9 0.00 0.28 0.00 80 1018.1
20260510151523 84 342 0.0 0.9 0.00 0.28 0.00 81 1017.9
20260510150012 83 7 0.9 1.7 0.00 0.28 0.00 84 1017.8
20260510144609 82 243 0.0 1.7 0.00 0.28 0.00 85 1017.8
20260510143047 80 329 0.0 1.7 0.00 0.28 0.00 89 1017.7
20260510141525 78 187 0.0 0.9 0.00 0.28 0.00 94 1017.6
20260510140020 77 233 0.0 1.7 0.00 0.28 0.00 99 1017.4
20260510134609 76 26 0.0 0.9 0.00 0.28 0.00 100 1017.3
20260510133103 75 257 0.0 0.9 0.00 0.28 0.00 100 1017.2
20260510131543 75 254 0.0 1.7 0.00 0.28 0.00 100 1017.1
20260510130038 74 238 0.0 0.9 0.00 0.28 0.00 100 1016.9
20260510124517 74 243 0.0 0.9 0.00 0.28 0.00 100 1016.9
20260510123016 74 237 0.0 0.0 0.00 0.28 0.00 100 1016.7
20260510121607 73 259 0.0 0.0 0.00 0.28 0.00 100 1016.5
20260510120058 72 259 0.0 0.0 0.00 0.28 0.00 100 1016.4
20260510114614 71 259 0.0 0.0 0.00 0.28 0.00 100 1016.2
20260510113059 70 259 0.0 0.0 0.00 0.28 0.00 100 1016.1
20260510111556 70 259 0.0 0.0 0.00 0.28 0.00 100 1015.8
20260510110053 70 259 0.0 0.0 0.00 0.28 0.00 100 1015.8
20260510104558 70 259 0.0 0.0 0.00 0.28 0.00 100 1015.5
20260510103052 70 259 0.0 0.0 0.00 0.28 0.00 100 1015.3
20260510101534 70 259 0.0 0.0 0.00 0.28 0.00 100 1015.2
20260510100047 70 259 0.0 0.0 0.00 0.28 0.00 100 1014.8
20260510094514 70 259 0.0 0.0 0.00 0.28 0.00 100 1014.9
20260510093012 71 259 0.0 0.0 0.00 0.28 0.00 100 1014.7
20260510091554 71 259 0.0 0.0 0.00 0.28 0.00 100 1014.7
20260510090053 71 259 0.0 0.0 0.00 0.28 0.00 100 1014.5
20260510084535 72 259 0.0 0.0 0.00 0.28 0.00 100 1014.3
20260510083041 72 259 0.0 0.0 0.00 0.28 0.00 100 1014.1
20260510081517 72 259 0.0 0.0 0.00 0.28 0.00 100 1013.9
20260510080016 72 259 0.0 0.0 0.00 0.28 0.00 100 1014.0
20260510074606 72 259 0.0 0.9 0.00 0.28 0.00 100 1013.9
20260510073056 72 259 0.0 0.0 0.00 0.28 0.00 100 1014.2
20260510071538 72 262 0.0 0.0 0.00 0.28 0.00 100 1014.3
20260510070042 72 262 0.0 0.0 0.00 0.28 0.00 100 1014.4
20260510064517 72 262 0.0 0.0 0.00 0.28 0.00 100 1014.5
20260510063014 72 262 0.0 0.0 0.00 0.28 0.00 100 1014.9
20260510061555 72 262 0.0 0.0 0.00 0.28 0.00 100 1015.0
20260510060054 72 248 0.0 0.9 0.00 0.28 0.00 100 1015.1
20260510054534 72 1 0.0 0.0 0.00 0.28 0.00 100 1015.3
20260510053032 72 1 0.0 0.0 0.00 0.28 0.00 100 1015.5
20260510051522 72 1 0.0 0.0 0.00 0.28 0.00 100 1015.6
20260510050018 72 1 0.0 0.0 0.00 0.28 0.00 100 1015.9
20260510044516 71 1 0.0 0.0 0.00 0.28 0.00 99 1015.9
20260510043015 71 1 0.0 0.0 0.00 0.28 0.00 99 1016.0
20260510041514 71 1 0.0 0.0 0.00 0.28 0.00 99 1016.0
20260510040013 71 1 0.0 0.0 0.00 0.28 0.28 99 1016.0
20260510034512 72 1 0.0 0.0 0.00 0.28 0.28 99 1016.1
20260510033014 72 1 0.0 0.0 0.00 0.28 0.28 99 1016.0
20260510031630 72 1 0.0 0.0 0.00 0.28 0.28 99 1016.1
20260510030054 72 1 0.0 0.0 0.00 0.28 0.28 99 1016.0
20260510024554 73 1 0.0 0.0 0.00 0.28 0.28 99 1015.9
20260510023036 73 1 0.0 0.0 0.00 0.28 0.28 99 1015.7
20260510021539 73 1 0.0 0.0 0.00 0.28 0.28 99 1015.9
20260510020020 73 46 0.0 0.0 0.00 0.28 0.28 98 1015.4
20260510014517 73 46 0.0 0.0 0.00 0.28 0.28 98 1015.0
20260510013058 73 46 0.0 0.0 0.00 0.28 0.28 98 1015.1
20260510011600 73 46 0.0 0.0 0.00 0.28 0.28 97 1015.0
20260510010047 73 46 0.0 0.0 0.00 0.28 0.28 97 1015.0
20260510004540 73 46 0.0 0.0 0.00 0.28 0.28 96 1014.9
20260510003051 73 46 0.0 0.0 0.00 0.28 0.28 96 1014.7
20260510001541 74 46 0.0 0.0 0.00 0.28 0.28 95 1014.7
20260510000041 74 46 0.0 0.0 0.00 0.28 0.28 95 1014.4
20260509234544 75 46 0.0 0.0 0.00 0.28 0.28 94 1014.2
20260509233034 75 46 0.0 0.0 0.00 0.28 0.28 94 1014.2
20260509231534 75 49 0.0 1.7 0.00 0.28 0.28 93 1014.1
20260509230016 76 25 0.0 0.9 0.00 0.88 0.28 94 1014.0
20260509224515 75 79 0.0 0.9 0.00 0.88 0.28 94 1013.9
20260509223004 75 58 0.0 1.7 0.00 0.88 0.28 94 1013.8
20260509221504 76 51 0.0 0.0 0.00 0.88 0.28 95 1013.9
20260509220003 76 51 0.0 0.0 0.00 1.27 0.28 95 1013.8
20260509214502 75 50 0.0 0.9 0.00 1.27 0.28 94 1013.9
20260509213002 75 49 0.0 0.0 0.00 1.27 0.28 95 1013.8
20260509211501 74 349 0.0 1.7 0.00 1.27 0.28 95 1013.8
20260509210002 74 343 0.9 2.6 0.00 1.27 0.28 95 1013.7
20260509204605 76 61 0.9 5.2 0.20 1.27 0.28 95 1013.6
20260509203042 77 54 0.0 0.9 0.28 1.27 0.28 96 1013.9
20260509201543 77 86 0.0 0.0 0.28 1.27 0.28 95 1013.4
20260509200027 78 170 0.0 1.7 0.28 1.27 0.28 93 1013.6
20260509194531 81 30 0.0 1.7 0.09 1.07 0.09 88 1013.6
20260509193004 84 78 0.0 1.7 0.00 0.98 0.00 79 1013.4
20260509191504 86 56 0.0 1.7 0.00 0.98 0.00 73 1013.0
20260509190047 86 106 0.0 1.7 0.00 0.98 0.00 72 1013.2
20260509184543 86 266 0.0 2.6 0.00 0.98 0.00 70 1013.3
20260509183029 87 15 0.0 1.7 0.00 0.98 0.00 70 1013.6
20260509181523 87 59 0.0 2.6 0.00 0.98 0.00 71 1013.9
20260509180004 87 52 0.0 1.7 0.00 0.98 0.00 72 1014.1
20260509174503 86 232 0.0 1.7 0.00 0.98 0.00 72 1014.2
20260509173050 86 256 0.0 0.9 0.00 0.98 0.00 73 1014.2
20260509171551 86 271 0.0 1.7 0.00 0.98 0.00 75 1014.2